WXM80 ListenWXM80 Stop

You find our weather info also at:

UK Metoffice

WeatherCloud

Weather Underground

Northeastern Weather Network

AWEKAS

Citizen Weather Observer Program (CWOP)

HAMweather, WeatherForYou, PWS Weather


Weather Underground History page Text

Daily Summary for January 23, 2018 Units:  English    Metric   Both
« Previous Day
Next Day »
Daily Weekly Monthly Yearly Custom
  High: Low: Average:
Temperature: TemperatureF °F 36.2 °F 47.2 °F
Dew Point: DewpointF °F 33.7 °F 45.1 °F
Humidity: Humidity % 67 % 93 %
Wind Speed: WindSpeedMPH mph 0.0 mph 4.3 mph
Wind Gust: WindSpeedGustMPH mph - -
Wind:- - South
Pressure: PressureIn in 29.26 in -
Precipitation: 0.30 in    
Historical Graphs
 
 
Tabular Data for January 23, 2018
Time Temperature Dew Point Pressure Wind Wind Speed Wind Gust Humidity Rainfall Rate (Hourly)
TemperatureF °F DewpointF °F PressureIn in Calm     Humidity % HourlyPrecipIn in
00:03 36.4 °F 35.6 °F 29.84 in East 2.6 mph 5.8 mph 97 % 0.00 in
00:08 36.4 °F 35.6 °F 29.84 in East 3.3 mph 4.6 mph 97 % 0.00 in
00:18 36.4 °F 35.6 °F 29.82 in East 5.6 mph 6.9 mph 97 % 0.00 in
00:23 36.4 °F 35.6 °F 29.82 in East 4.2 mph 5.8 mph 97 % 0.00 in
00:28 36.4 °F 35.6 °F 29.82 in East 4.0 mph 5.8 mph 97 % 0.00 in
00:33 36.4 °F 35.6 °F 29.81 in East 2.9 mph 5.8 mph 97 % 0.00 in
00:40 36.4 °F 35.6 °F 29.81 in East 5.1 mph 6.0 mph 97 % 0.00 in
00:45 36.5 °F 35.7 °F 29.81 in East 3.1 mph 4.6 mph 97 % 0.00 in
00:50 36.5 °F 35.7 °F 29.80 in East 1.9 mph 3.5 mph 97 % 0.00 in
01:05 36.6 °F 35.8 °F 29.79 in ENE 2.2 mph 3.5 mph 97 % 0.00 in
01:10 36.5 °F 36.0 °F 29.79 in ENE 1.8 mph 3.5 mph 98 % 0.00 in
01:15 36.5 °F 35.7 °F 29.79 in ENE 1.3 mph 3.5 mph 97 % 0.00 in
01:20 36.5 °F 36.0 °F 29.79 in ENE 2.5 mph 3.5 mph 98 % 0.00 in
01:25 36.5 °F 36.0 °F 29.78 in ENE 2.9 mph 3.5 mph 98 % 0.00 in
01:30 36.4 °F 35.9 °F 29.79 in ENE 1.5 mph 3.5 mph 98 % 0.00 in
01:35 36.3 °F 35.5 °F 29.78 in ENE 2.3 mph 3.5 mph 97 % 0.00 in
01:41 36.3 °F 35.5 °F 29.77 in ENE 2.0 mph 4.0 mph 97 % 0.00 in
01:46 36.2 °F 35.4 °F 29.76 in ENE 2.0 mph 3.0 mph 97 % 0.00 in
01:51 36.2 °F 35.4 °F 29.75 in ENE 2.0 mph 3.0 mph 97 % 0.00 in
01:55 36.2 °F 35.4 °F 29.75 in ENE 3.0 mph 6.0 mph 97 % 0.00 in
02:01 36.3 °F 35.5 °F 29.75 in East 4.3 mph 6.9 mph 97 % 0.00 in
02:06 36.4 °F 35.6 °F 29.75 in ENE 2.1 mph 3.5 mph 97 % 0.00 in
02:16 36.5 °F 36.0 °F 29.75 in ENE 2.6 mph 3.5 mph 98 % 0.00 in
02:21 36.6 °F 36.1 °F 29.75 in ENE 2.2 mph 3.5 mph 98 % 0.00 in
02:31 36.7 °F 36.2 °F 29.75 in ENE 1.1 mph 2.3 mph 98 % 0.00 in
02:36 36.8 °F 36.3 °F 29.74 in ENE 0.5 mph 3.5 mph 98 % 0.00 in
02:46 37.0 °F 36.5 °F 29.74 in ENE 3.0 mph 3.5 mph 98 % 0.00 in
02:51 37.0 °F 36.5 °F 29.74 in ENE 1.9 mph 3.5 mph 98 % 0.00 in
02:56 37.0 °F 36.5 °F 29.73 in ENE 1.5 mph 3.0 mph 98 % 0.00 in
03:01 37.0 °F 36.5 °F 29.72 in ENE 1.1 mph 2.3 mph 98 % 0.00 in
03:06 37.0 °F 36.5 °F 29.72 in ENE 1.9 mph 3.5 mph 98 % 0.00 in
03:11 37.0 °F 36.5 °F 29.71 in ENE 1.7 mph 3.5 mph 98 % 0.00 in
03:16 37.0 °F 36.5 °F 29.71 in ENE 2.6 mph 3.5 mph 98 % 0.00 in
03:21 37.0 °F 36.5 °F 29.71 in ENE 2.2 mph 3.5 mph 98 % 0.00 in
03:26 37.0 °F 36.5 °F 29.71 in ENE 0.9 mph 2.3 mph 98 % 0.00 in
03:32 37.0 °F 36.5 °F 29.71 in Calm     98 % 0.00 in
03:37 37.0 °F 36.5 °F 29.71 in Calm     98 % 0.00 in
03:42 37.0 °F 36.5 °F 29.71 in Calm     98 % 0.00 in
03:47 37.0 °F 36.5 °F 29.71 in Calm     98 % 0.00 in
03:52 37.1 °F 36.6 °F 29.69 in ENE 1.6 mph 3.5 mph 98 % 0.00 in
03:57 37.1 °F 36.6 °F 29.69 in ENE 2.0 mph 3.5 mph 98 % 0.00 in
04:02 37.1 °F 36.6 °F 29.69 in ENE 1.3 mph 3.5 mph 98 % 0.00 in
04:07 37.1 °F 36.6 °F 29.69 in ENE 2.3 mph 3.5 mph 98 % 0.00 in
04:12 37.1 °F 36.6 °F 29.68 in ENE 0.8 mph 3.5 mph 98 % 0.00 in
04:17 37.1 °F 36.6 °F 29.68 in ENE 1.6 mph 3.5 mph 98 % 0.00 in
04:22 37.1 °F 36.6 °F 29.68 in ENE 3.1 mph 5.0 mph 98 % 0.00 in
04:32 37.2 °F 36.7 °F 29.67 in ENE 2.9 mph 3.5 mph 98 % 0.00 in
04:37 37.3 °F 36.8 °F 29.66 in NE 2.0 mph 3.5 mph 98 % 0.00 in
04:42 37.4 °F 36.9 °F 29.66 in ENE 2.7 mph 3.5 mph 98 % 0.00 in
04:47 37.4 °F 36.9 °F 29.65 in ENE 4.3 mph 6.9 mph 98 % 0.00 in
04:52 37.5 °F 37.0 °F 29.66 in ENE 1.5 mph 3.5 mph 98 % 0.00 in
04:57 37.5 °F 37.0 °F 29.66 in ENE 0.5 mph 1.2 mph 98 % 0.00 in
05:07 37.5 °F 37.0 °F 29.64 in Calm     98 % 0.00 in
05:13 37.6 °F 37.1 °F 29.64 in Calm     98 % 0.00 in
05:18 37.7 °F 37.2 °F 29.64 in Calm   1.2 mph 98 % 0.00 in
05:23 37.7 °F 37.2 °F 29.65 in NE 1.3 mph 3.5 mph 98 % 0.00 in
05:28 37.8 °F 37.3 °F 29.64 in Calm   2.3 mph 98 % 0.00 in
05:33 37.8 °F 37.3 °F 29.64 in NNE 1.7 mph 3.5 mph 98 % 0.00 in
05:38 37.8 °F 37.3 °F 29.63 in NNE 1.4 mph 2.3 mph 98 % 0.00 in
05:43 37.7 °F 37.2 °F 29.63 in NE 0.8 mph 2.3 mph 98 % 0.00 in
05:53 37.6 °F 37.1 °F 29.63 in Calm   1.2 mph 98 % 0.00 in
05:58 37.5 °F 37.0 °F 29.62 in NE 1.0 mph 1.2 mph 98 % 0.00 in
06:03 37.5 °F 37.0 °F 29.61 in ENE 1.8 mph 3.5 mph 98 % 0.00 in
06:08 37.5 °F 37.0 °F 29.62 in Calm     98 % 0.00 in
06:13 37.5 °F 37.0 °F 29.61 in NE 1.2 mph 3.0 mph 98 % 0.00 in
06:23 37.5 °F 37.0 °F 29.61 in Calm     98 % 0.00 in
06:28 37.5 °F 37.0 °F 29.60 in Calm   1.2 mph 98 % 0.00 in
06:33 37.6 °F 37.1 °F 29.59 in Calm     98 % 0.00 in
06:38 37.6 °F 37.1 °F 29.59 in Calm   1.2 mph 98 % 0.00 in
06:43 37.7 °F 37.2 °F 29.58 in NE 0.6 mph 3.0 mph 98 % 0.00 in
06:48 37.9 °F 37.4 °F 29.58 in NNE 0.8 mph 3.5 mph 98 % 0.00 in
06:54 38.1 °F 37.6 °F 29.57 in NNE 1.5 mph 2.3 mph 98 % 0.00 in
06:59 38.3 °F 37.8 °F 29.57 in NE 0.1 mph 2.3 mph 98 % 0.00 in
07:04 38.4 °F 37.9 °F 29.56 in SSE 2.6 mph 4.6 mph 98 % 0.00 in
07:09 40.8 °F 40.3 °F 29.56 in SSW 2.3 mph 5.8 mph 98 % 0.00 in
07:14 45.1 °F 44.6 °F 29.55 in South 3.4 mph 7.0 mph 98 % 0.00 in
07:19 48.0 °F 47.5 °F 29.55 in SSW 3.9 mph 8.1 mph 98 % 0.00 in
07:24 50.0 °F 49.7 °F 29.54 in SSE 8.5 mph 12.7 mph 99 % 0.00 in
07:29 51.3 °F 51.0 °F 29.54 in South 5.4 mph 8.0 mph 99 % 0.00 in
07:34 52.1 °F 51.8 °F 29.54 in SSE 4.9 mph 10.4 mph 99 % 0.00 in
07:39 52.4 °F 52.1 °F 29.53 in SSW 6.4 mph 9.2 mph 99 % 0.00 in
07:44 53.0 °F 52.7 °F 29.54 in SSW 8.5 mph 16.1 mph 99 % 0.00 in
07:49 53.2 °F 52.9 °F 29.54 in South 5.5 mph 9.0 mph 99 % 0.01 in
07:54 53.3 °F 53.0 °F 29.53 in SSE 10.0 mph 10.4 mph 99 % 0.03 in
07:59 53.5 °F 53.2 °F 29.53 in South 7.8 mph 13.0 mph 99 % 0.04 in
08:04 53.7 °F 53.4 °F 29.52 in SE 10.8 mph 15.0 mph 99 % 0.04 in
08:14 54.4 °F 54.1 °F 29.52 in SSW 8.2 mph 11.5 mph 99 % 0.04 in
08:19 54.8 °F 54.5 °F 29.51 in South 6.3 mph 12.0 mph 99 % 0.04 in
08:24 54.8 °F 54.5 °F 29.51 in South 6.6 mph 13.8 mph 99 % 0.04 in
08:29 54.8 °F 54.5 °F 29.51 in South 6.2 mph 11.5 mph 99 % 0.04 in
08:35 54.9 °F 54.6 °F 29.50 in SSW 6.1 mph 12.7 mph 99 % 0.04 in
08:45 55.2 °F 54.9 °F 29.50 in South 11.6 mph 21.9 mph 99 % 0.04 in
08:50 55.4 °F 55.1 °F 29.50 in SSE 5.2 mph 13.8 mph 99 % 0.03 in
08:55 55.7 °F 55.4 °F 29.50 in South 6.4 mph 11.5 mph 99 % 0.01 in
09:05 56.0 °F 55.7 °F 29.49 in SSE 7.7 mph 13.8 mph 99 % 0.01 in
09:15 56.2 °F 55.9 °F 29.49 in SSW 9.2 mph 15.0 mph 99 % 0.02 in
09:20 56.2 °F 55.9 °F 29.48 in SSW 6.6 mph 15.0 mph 99 % 0.02 in
09:25 56.3 °F 56.0 °F 29.48 in South 8.3 mph 13.0 mph 99 % 0.03 in
09:30 56.2 °F 55.9 °F 29.48 in SSW 6.3 mph 11.5 mph 99 % 0.03 in
09:35 56.2 °F 55.9 °F 29.48 in South 6.7 mph 11.5 mph 99 % 0.04 in
09:40 56.2 °F 55.9 °F 29.47 in South 9.4 mph 19.6 mph 99 % 0.06 in
09:45 56.3 °F 56.0 °F 29.47 in SSE 5.6 mph 11.5 mph 99 % 0.08 in
09:50 56.3 °F 56.0 °F 29.47 in South 8.2 mph 12.7 mph 99 % 0.09 in
09:56 56.4 °F 56.1 °F 29.47 in SSW 7.1 mph 16.1 mph 99 % 0.10 in
10:01 56.6 °F 56.3 °F 29.47 in SSW 10.1 mph 16.1 mph 99 % 0.10 in
10:06 56.6 °F 56.3 °F 29.47 in SSW 6.7 mph 15.0 mph 99 % 0.11 in
10:11 56.6 °F 56.3 °F 29.46 in South 10.6 mph 17.3 mph 99 % 0.11 in
10:16 56.6 °F 56.3 °F 29.45 in SSE 6.1 mph 18.4 mph 99 % 0.11 in
10:26 56.6 °F 56.3 °F 29.45 in SSW 5.5 mph 11.5 mph 99 % 0.11 in
10:31 56.5 °F 56.2 °F 29.44 in South 8.1 mph 11.0 mph 99 % 0.10 in
10:36 56.5 °F 56.2 °F 29.44 in SW 5.6 mph 15.0 mph 99 % 0.09 in
10:41 56.5 °F 56.2 °F 29.44 in South 3.7 mph 12.7 mph 99 % 0.08 in
10:47 56.4 °F 56.1 °F 29.45 in SSW 9.9 mph 15.0 mph 99 % 0.07 in
10:52 56.3 °F 56.0 °F 29.43 in SSW 7.1 mph 11.5 mph 99 % 0.07 in
11:02 55.9 °F 55.3 °F 29.40 in SSW 8.4 mph 19.6 mph 98 % 0.07 in
11:12 56.5 °F 56.2 °F 29.39 in SSE 10.8 mph 16.1 mph 99 % 0.07 in
11:22 56.7 °F 56.4 °F 29.39 in SSE 10.1 mph 17.0 mph 99 % 0.08 in
11:27 56.5 °F 55.9 °F 29.38 in SSW 11.4 mph 18.4 mph 98 % 0.09 in
11:32 56.2 °F 55.6 °F 29.38 in SSW 7.7 mph 16.0 mph 98 % 0.09 in
11:37 56.1 °F 55.5 °F 29.37 in South 9.5 mph 16.1 mph 98 % 0.10 in
11:42 55.9 °F 55.3 °F 29.36 in SSW 8.5 mph 19.6 mph 98 % 0.09 in
11:47 55.9 °F 55.3 °F 29.36 in South 8.2 mph 18.0 mph 98 % 0.10 in
11:52 55.9 °F 55.3 °F 29.35 in SSW 6.7 mph 11.5 mph 98 % 0.09 in
11:57 56.2 °F 55.6 °F 29.34 in South 8.9 mph 10.4 mph 98 % 0.08 in
12:02 56.3 °F 55.7 °F 29.34 in South 11.2 mph 17.0 mph 98 % 0.07 in
12:12 56.5 °F 55.9 °F 29.33 in South 10.1 mph 20.7 mph 98 % 0.06 in
12:17 56.5 °F 55.9 °F 29.33 in SSW 8.6 mph 19.6 mph 98 % 0.05 in
12:23 56.5 °F 55.9 °F 29.31 in SE 8.9 mph 18.4 mph 98 % 0.04 in
12:28 56.4 °F 55.8 °F 29.30 in SSW 5.8 mph 14.0 mph 98 % 0.03 in
12:33 56.2 °F 55.6 °F 29.30 in South 7.2 mph 17.3 mph 98 % 0.03 in
12:38 56.2 °F 55.6 °F 29.31 in South 5.9 mph 17.3 mph 98 % 0.02 in
12:43 56.1 °F 55.5 °F 29.31 in South 8.2 mph 12.7 mph 98 % 0.02 in
12:48 56.0 °F 55.4 °F 29.31 in SSE 7.7 mph 11.5 mph 98 % 0.01 in
12:53 55.9 °F 55.3 °F 29.31 in SW 6.3 mph 12.7 mph 98 % 0.01 in
13:08 55.6 °F 55.0 °F 29.30 in South 10.5 mph 17.3 mph 98 % 0.01 in
13:13 55.5 °F 54.9 °F 29.29 in SSW 7.5 mph 16.1 mph 98 % 0.00 in
13:16 55.4 °F 54.8 °F 29.29 in SSW 5.8 mph 11.5 mph 98 % 0.00 in
13:21 55.2 °F 54.6 °F 29.28 in South 7.8 mph 16.1 mph 98 % 0.00 in
13:22 55.2 °F 54.6 °F 29.29 in SSE 6.4 mph 16.1 mph 98 % 0.00 in
13:27 55.0 °F 54.2 °F 29.28 in South 7.5 mph 11.5 mph 97 % 0.00 in
13:32 55.0 °F 54.2 °F 29.28 in SSW 5.1 mph 11.5 mph 97 % 0.00 in
13:37 54.9 °F 54.1 °F 29.29 in SSW 7.1 mph 15.0 mph 97 % 0.00 in
13:42 54.9 °F 54.1 °F 29.29 in SW 6.9 mph 13.8 mph 97 % 0.00 in
13:47 54.9 °F 54.1 °F 29.29 in WSW 5.8 mph 13.8 mph 97 % 0.00 in
13:52 54.9 °F 54.1 °F 29.29 in WSW 5.0 mph 8.0 mph 97 % 0.00 in
13:57 55.1 °F 54.5 °F 29.28 in SW 5.4 mph 9.2 mph 98 % 0.00 in
14:02 55.2 °F 54.6 °F 29.28 in SSW 4.3 mph 6.0 mph 98 % 0.00 in
14:07 55.3 °F 54.7 °F 29.27 in SSW 2.2 mph 7.0 mph 98 % 0.00 in
14:12 55.4 °F 54.8 °F 29.27 in South 5.5 mph 8.1 mph 98 % 0.00 in
14:22 55.4 °F 54.8 °F 29.27 in WSW 0.8 mph 3.0 mph 98 % 0.00 in
14:32 55.7 °F 55.1 °F 29.26 in WSW 2.0 mph 3.5 mph 98 % 0.00 in
14:37 55.8 °F 55.2 °F 29.26 in SW 2.8 mph 3.5 mph 98 % 0.00 in
14:42 55.9 °F 55.3 °F 29.26 in SW 0.2 mph 3.5 mph 98 % 0.00 in
14:47 55.9 °F 55.3 °F 29.26 in WSW 3.0 mph 3.5 mph 98 % 0.00 in
14:52 55.9 °F 55.3 °F 29.26 in SW 3.5 mph 3.5 mph 98 % 0.00 in
14:58 56.0 °F 55.4 °F 29.26 in SW 0.1 mph 2.3 mph 98 % 0.00 in
15:03 56.0 °F 55.4 °F 29.27 in WNW 1.6 mph 3.5 mph 98 % 0.00 in
15:08 56.0 °F 55.4 °F 29.27 in West 2.7 mph 5.0 mph 98 % 0.00 in
15:13 55.9 °F 55.3 °F 29.28 in SW 2.9 mph 5.8 mph 98 % 0.00 in
15:23 56.0 °F 55.2 °F 29.27 in SW 0.3 mph 2.3 mph 97 % 0.00 in
15:33 56.0 °F 55.2 °F 29.28 in WSW 2.0 mph 3.5 mph 97 % 0.00 in
15:38 56.0 °F 55.2 °F 29.28 in West 0.5 mph 3.5 mph 97 % 0.00 in
15:43 56.0 °F 55.2 °F 29.28 in West 0.3 mph 1.0 mph 97 % 0.00 in
15:48 56.0 °F 55.2 °F 29.28 in West 0.6 mph 2.3 mph 97 % 0.00 in
15:53 55.9 °F 55.1 °F 29.28 in Calm   1.2 mph 97 % 0.00 in
15:58 55.9 °F 55.1 °F 29.29 in Calm     97 % 0.00 in
16:03 55.8 °F 55.0 °F 29.29 in Calm     97 % 0.00 in
16:08 55.7 °F 54.9 °F 29.30 in WSW 1.1 mph 4.6 mph 97 % 0.00 in
16:13 55.4 °F 54.6 °F 29.30 in WSW 1.1 mph 3.5 mph 97 % 0.00 in
16:18 55.1 °F 54.0 °F 29.30 in WSW 0.8 mph 6.9 mph 96 % 0.00 in
16:29 54.8 °F 53.7 °F 29.31 in WSW 0.8 mph 5.0 mph 96 % 0.00 in
16:34 54.6 °F 53.5 °F 29.31 in WSW 0.4 mph 2.3 mph 96 % 0.00 in
16:39 54.5 °F 53.4 °F 29.31 in WSW 0.2 mph 1.2 mph 96 % 0.00 in
16:44 54.4 °F 53.0 °F 29.31 in Calm     95 % 0.00 in
16:49 54.2 °F 52.8 °F 29.31 in Calm     95 % 0.00 in
16:54 54.0 °F 52.6 °F 29.31 in Calm   1.2 mph 95 % 0.00 in
16:59 53.9 °F 52.5 °F 29.32 in WSW 0.9 mph 2.3 mph 95 % 0.00 in
17:09 53.7 °F 52.3 °F 29.33 in WSW 0.6 mph 3.5 mph 95 % 0.00 in
17:14 53.6 °F 52.5 °F 29.33 in WSW 0.1 mph 3.0 mph 96 % 0.00 in
17:29 53.7 °F 52.6 °F 29.35 in NW 1.7 mph 3.5 mph 96 % 0.00 in
17:34 53.7 °F 52.6 °F 29.37 in Calm   3.5 mph 96 % 0.00 in
17:39 53.3 °F 52.2 °F 29.36 in WNW 8.0 mph 12.0 mph 96 % 0.00 in
17:44 52.9 °F 51.5 °F 29.37 in WNW 5.9 mph 10.4 mph 95 % 0.00 in
17:54 52.2 °F 50.8 °F 29.37 in WNW 2.3 mph 4.6 mph 95 % 0.00 in
18:00 52.0 °F 50.6 °F 29.38 in West 3.7 mph 4.6 mph 95 % 0.00 in
18:05 51.7 °F 50.3 °F 29.37 in WNW 3.4 mph 9.2 mph 95 % 0.00 in
18:10 51.4 °F 50.0 °F 29.37 in NW 7.5 mph 8.0 mph 95 % 0.00 in
18:15 51.0 °F 49.3 °F 29.37 in West 3.3 mph 8.1 mph 94 % 0.00 in
18:20 50.6 °F 48.9 °F 29.38 in SSE 1.2 mph 8.1 mph 94 % 0.00 in
18:25 50.3 °F 48.4 °F 29.38 in West 1.4 mph 3.5 mph 93 % 0.00 in
18:30 50.0 °F 48.1 °F 29.38 in WSW 1.9 mph 3.5 mph 93 % 0.00 in
18:35 49.7 °F 47.5 °F 29.38 in WSW 5.6 mph 9.0 mph 92 % 0.00 in
18:40 49.2 °F 46.7 °F 29.37 in SW 2.4 mph 4.6 mph 91 % 0.00 in
18:45 48.9 °F 46.1 °F 29.38 in WSW 4.8 mph 8.1 mph 90 % 0.00 in
18:50 48.5 °F 45.7 °F 29.38 in SW 6.1 mph 11.0 mph 90 % 0.00 in
18:55 48.2 °F 45.4 °F 29.38 in WSW 3.1 mph 6.9 mph 90 % 0.00 in
19:00 48.0 °F 45.2 °F 29.38 in West 4.2 mph 6.0 mph 90 % 0.00 in
19:05 47.9 °F 44.8 °F 29.38 in WSW 2.4 mph 4.6 mph 89 % 0.00 in
19:10 47.8 °F 45.0 °F 29.38 in SW 1.9 mph 3.5 mph 90 % 0.00 in
19:15 47.6 °F 44.8 °F 29.38 in SW 2.2 mph 4.6 mph 90 % 0.00 in
19:20 47.6 °F 44.8 °F 29.39 in WSW 1.4 mph 5.8 mph 90 % 0.00 in
19:25 47.4 °F 44.6 °F 29.39 in SW 4.3 mph 4.3 mph 90 % 0.00 in
19:30 47.2 °F 44.4 °F 29.39 in WSW 3.3 mph 8.1 mph 90 % 0.00 in
19:36 47.0 °F 43.9 °F 29.39 in WSW 6.4 mph 10.4 mph 89 % 0.00 in
19:46 46.8 °F 43.4 °F 29.40 in SW 3.3 mph 5.8 mph 88 % 0.00 in
19:51 46.7 °F 43.3 °F 29.40 in WSW 3.0 mph 7.0 mph 88 % 0.00 in
19:56 46.6 °F 43.2 °F 29.40 in WSW 2.0 mph 6.0 mph 88 % 0.00 in
20:01 46.5 °F 43.1 °F 29.40 in SW 6.0 mph 6.0 mph 88 % 0.00 in
20:06 46.4 °F 42.7 °F 29.40 in WSW 2.0 mph 10.0 mph 87 % 0.00 in
20:11 46.4 °F 42.4 °F 29.40 in WSW 3.0 mph 13.0 mph 86 % 0.00 in
20:16 46.4 °F 42.1 °F 29.40 in West 7.9 mph 14.0 mph 85 % 0.00 in
20:21 46.5 °F 41.9 °F 29.40 in WSW 10.0 mph 18.0 mph 84 % 0.00 in
20:26 46.5 °F 41.9 °F 29.41 in West 5.0 mph 13.0 mph 84 % 0.00 in
20:31 46.5 °F 41.3 °F 29.41 in WSW 10.0 mph 21.0 mph 82 % 0.00 in
20:36 46.5 °F 41.0 °F 29.41 in WSW 8.0 mph 17.0 mph 81 % 0.00 in
20:41 46.4 °F 40.3 °F 29.42 in West 8.0 mph 17.0 mph 79 % 0.00 in
20:46 46.3 °F 39.8 °F 29.42 in WSW 7.0 mph 15.0 mph 78 % 0.00 in
20:56 46.0 °F 38.9 °F 29.43 in WSW 10.1 mph 13.8 mph 76 % 0.00 in
21:01 45.9 °F 38.4 °F 29.43 in NW 8.0 mph 18.4 mph 75 % 0.00 in
21:06 45.8 °F 37.6 °F 29.43 in SW 9.0 mph 18.4 mph 73 % 0.00 in
21:11 45.7 °F 37.5 °F 29.44 in WSW 5.6 mph 18.4 mph 73 % 0.00 in
21:16 45.6 °F 37.4 °F 29.44 in WSW 10.0 mph 19.6 mph 73 % 0.00 in
21:21 45.5 °F 36.6 °F 29.44 in SW 6.0 mph 16.1 mph 71 % 0.00 in
21:26 45.4 °F 36.5 °F 29.44 in SSW 4.0 mph 11.5 mph 71 % 0.00 in
21:31 45.2 °F 36.0 °F 29.45 in WSW 3.9 mph 11.5 mph 70 % 0.00 in
21:36 45.1 °F 35.5 °F 29.45 in NW 7.8 mph 13.8 mph 69 % 0.00 in
21:41 44.9 °F 35.3 °F 29.44 in WSW 5.1 mph 11.5 mph 69 % 0.00 in
21:46 44.9 °F 35.0 °F 29.45 in WNW 8.9 mph 17.3 mph 68 % 0.00 in
21:51 44.9 °F 34.6 °F 29.45 in WNW 6.8 mph 13.8 mph 67 % 0.00 in
21:56 44.8 °F 34.9 °F 29.45 in WNW 7.9 mph 15.0 mph 68 % 0.00 in
22:01 44.7 °F 34.4 °F 29.45 in NNW 4.4 mph 11.5 mph 67 % 0.00 in
22:06 44.7 °F 34.4 °F 29.45 in WSW 9.3 mph 10.4 mph 67 % 0.00 in
22:11 44.7 °F 34.4 °F 29.46 in WSW 7.0 mph 9.0 mph 67 % 0.00 in
22:21 44.4 °F 34.5 °F 29.46 in WSW 6.3 mph 8.1 mph 68 % 0.00 in
22:26 44.2 °F 34.3 °F 29.46 in West 8.4 mph 11.5 mph 68 % 0.00 in
22:31 44.0 °F 34.1 °F 29.46 in WSW 4.1 mph 12.0 mph 68 % 0.00 in
22:36 43.8 °F 34.3 °F 29.46 in West 6.1 mph 10.4 mph 69 % 0.00 in
22:42 43.6 °F 34.1 °F 29.46 in SW 5.8 mph 10.4 mph 69 % 0.00 in
22:47 43.5 °F 34.4 °F 29.46 in WSW 5.2 mph 12.0 mph 70 % 0.00 in
22:52 43.3 °F 33.8 °F 29.46 in SW 7.0 mph 15.0 mph 69 % 0.00 in
22:57 43.1 °F 34.0 °F 29.46 in SSW 6.6 mph 10.4 mph 70 % 0.00 in
23:02 43.1 °F 34.0 °F 29.46 in WSW 1.7 mph 6.0 mph 70 % 0.00 in
23:07 42.9 °F 33.8 °F 29.47 in WSW 3.4 mph 8.1 mph 70 % 0.00 in
23:12 42.9 °F 33.8 °F 29.46 in WSW 6.6 mph 15.0 mph 70 % 0.00 in
23:22 42.9 °F 34.1 °F 29.47 in WSW 3.8 mph 9.2 mph 71 % 0.00 in
23:27 42.8 °F 33.7 °F 29.47 in WSW 4.9 mph 8.1 mph 70 % 0.00 in
23:47 42.5 °F 33.8 °F 29.47 in SW 2.7 mph 11.0 mph 71 % 0.00 in
23:52 42.4 °F 33.7 °F 29.47 in SW 5.9 mph 11.5 mph 71 % 0.00 in
23:57 42.3 °F 33.9 °F 29.47 in West 5.8 mph 11.5 mph 72 % 0.00 in
Crab Meadow Weather
Compliments of Weather Underground - 2.75 mb

Script developed by  Jim McMurry - jmcmurry@mwt.net Adapted for the template by  Wim van der Kuil - Leuven-Template.eu

Weather Terms: Tornado Watch - Conditions are favorable for the development of severe thunderstorms and tornadoes in and close to the watch area. These watches are issued for large areas by the Storm Prediction Center in Norman, Oklahoma, and are usually valid for four to six hours.